Wind_Speed
10 8 6 4 4 4 3 2 1 1 2 2 3 3 4 5 6 8 10 12 13 14 16 17 18 20 23 23 20 17 17 20 23 28 31 32 32 31 30 28 26 24 21 18 16 16 17 17 18 18 17 15 15 17 17 18 19 19 19 18 19 19 20 20 20 20 19 19 19 19 20 21 20 20 20 20 20 20 19 19 19 19 19 20 22
13 11 10 8 7 6 6 6 5 3 2 1 0 1 1 3 4 5 7 9 10 11 12 13 15 17 19 20 20 17 15 17 21 25 29 30 30 30 29 28 27 26 24 20 17 18 20 21 21 20 18 16 16 17 17 17 17 17 15 15 16 18 19 20 20 20 20 19 20 20 21 21 21 20 20 20 21 21 20 20 20 20 21 22 23
16 14 13 12 10 8 7 6 7 6 5 3 3 2 1 1 2 3 4 5 7 8 8 9 10 12 14 16 17 17 15 14 16 21 26 28 29 30 29 28 27 27 27 25 21 21 20 19 20 19 17 16 17 17 18 18 18 17 14 13 14 17 19 21 22 22 21 22 22 22 22 23 23 23 23 23 23 24 24 24 24 24 24 25 25
19 18 17 15 13 12 10 9 8 7 6 5 5 5 4 3 1 0 1 2 2 4 5 6 6 8 10 11 12 14 14 13 13 15 20 24 26 27 27 26 26 26 27 26 22 21 20 19 18 18 17 17 18 18 18 19 19 19 17 14 13 16 20 24 25 24 23 24 25 25 26 26 26 26 27 27 27 28 29 29 29 29 29 29 29
22 21 20 18 16 15 14 13 11 10 9 7 6 6 6 7 6 5 4 3 1 0 1 3 4 4 5 8 9 10 10 10 10 10 15 20 23 25 25 24 25 25 25 24 21 20 21 20 19 18 18 18 18 18 19 19 19 20 20 17 15 18 22 26 27 26 25 27 28 29 29 29 29 29 28 28 29 31 32 32 33 33 33 33 33
24 23 22 21 19 18 16 14 13 12 11 9 7 6 6 7 7 7 8 7 5 3 2 1 1 1 1 2 5 7 7 7 6 7 11 15 19 23 24 24 25 26 25 24 22 21 21 20 20 20 21 20 20 20 20 20 21 21 21 20 21 23 26 28 28 28 28 30 31 32 32 33 33 33 32 31 30 31 33 33 34 35 36 36 37
26 26 25 23 21 20 19 17 16 15 14 13 11 9 8 8 7 8 8 9 8 5 3 2 3 2 3 2 2 3 4 5 4 5 6 9 12 16 20 23 26 27 27 26 25 23 22 22 21 22 22 22 21 22 21 21 22 21 22 23 25 27 28 30 31 30 31 32 32 33 33 34 35 35 35 34 34 34 34 34 35 35 35 36 37
28 28 28 25 23 21 20 20 19 18 17 16 14 13 12 11 9 9 9 10 10 9 7 6 7 7 6 6 5 6 6 6 6 5 5 6 8 10 13 17 20 23 25 26 27 26 25 24 24 24 23 23 23 23 22 23 23 24 25 27 28 28 29 32 33 31 30 30 31 32 32 33 33 32 33 34 34 34 35 35 35 35 34 33 35
31 29 28 26 24 22 22 22 21 19 18 16 16 16 15 12 11 12 12 12 12 13 13 12 11 10 10 10 9 10 10 10 9 8 9 9 10 10 11 11 13 15 18 21 24 26 26 26 26 26 24 23 23 22 22 24 25 28 30 30 30 30 31 33 32 30 29 30 31 31 32 32 32 31 32 33 34 35 36 36 36 37 35 34 35
33 31 29 28 26 25 24 24 24 23 22 20 17 17 17 16 16 16 15 15 14 14 15 16 15 14 13 12 12 13 13 13 13 12 12 12 13 14 14 14 14 14 15 17 19 21 23 24 25 24 22 21 20 20 23 26 27 29 30 30 31 32 34 34 33 33 34 35 34 34 34 34 35 36 36 37 38 39 39 40 40 40 39 38 37
35 33 31 30 30 28 26 26 27 27 26 24 21 20 20 20 21 21 20 19 18 17 17 18 18 18 17 16 15 14 15 16 19 19 17 16 16 17 18 19 19 18 18 18 19 20 22 23 23 22 21 21 20 21 25 28 29 30 31 32 33 35 36 37 36 37 39 41 40 39 38 39 41 41 41 41 42 42 43 43 44 43 42 41 41
36 35 34 33 32 30 29 29 30 29 28 26 24 24 24 23 24 25 25 24 22 20 20 21 22 21 21 20 19 18 18 19 21 21 22 22 21 20 21 22 22 23 23 23 22 23 24 25 25 25 26 26 27 28 30 30 32 34 34 36 38 40 40 41 41 42 43 43 44 44 44 44 44 44 44 44 45 46 46 47 47 47 46 45 45
39 38 37 35 34 33 33 33 32 31 29 28 28 27 27 27 27 27 27 26 25 24 24 25 27 26 26 25 23 22 23 23 22 22 23 24 25 25 25 25 25 26 26 25 26 27 27 27 28 28 30 31 32 34 35 34 35 37 38 39 42 43 43 43 42 43 43 45 46 47 48 47 47 47 48 48 49 49 49 49 50 50 49 48 48
42 41 40 38 36 35 36 36 34 33 31 30 30 29 28 28 28 29 30 30 28 27 28 29 30 30 30 30 29 27 27 27 27 26 26 26 28 30 30 29 29 29 29 28 29 30 31 31 31 32 34 35 36 37 38 37 38 40 40 41 43 44 44 44 44 44 45 47 47 48 49 50 50 49 50 50 50 50 50 50 51 51 51 50 50
45 43 43 41 39 38 39 38 37 35 33 32 32 31 29 28 30 31 31 32 31 30 31 32 33 33 33 33 34 33 32 32 32 32 32 32 32 34 35 35 34 33 32 31 31 32 33 34 34 35 38 40 41 42 42 41 41 41 43 44 45 45 46 46 47 48 49 49 50 50 51 52 52 51 51 52 52 52 53 53 52 51 51 51 51
44 45 44 42 42 42 41 40 40 38 36 34 33 32 30 30 31 32 31 31 31 32 33 34 35 37 38 37 37 37 36 37 37 37 37 37 37 37 38 39 39 37 35 34 34 35 36 38 39 40 41 42 43 44 45 45 45 45 46 47 48 49 49 49 50 51 52 53 55 55 56 56 55 55 56 56 57 57 56 54 53 53 53 54 55
44 44 44 43 43 43 41 40 41 41 38 36 35 34 33 33 34 35 33 33 33 32 33 35 37 40 41 41 40 40 40 40 40 41 41 41 40 39 39 39 40 40 39 39 39 40 40 41 42 43 45 46 46 46 47 48 49 50 51 52 53 53 53 53 54 54 56 57 59 60 60 61 60 60 59 58 59 59 58 56 56 56 57 59 61
47 44 43 43 42 41 40 40 42 42 40 39 38 37 36 35 37 38 38 36 35 35 37 38 40 41 43 43 43 43 43 43 42 42 42 42 42 41 40 40 41 41 40 39 40 42 43 44 45 46 48 50 50 51 52 53 53 54 55 56 57 58 58 58 58 58 60 62 63 63 64 65 65 64 62 61 61 62 61 60 60 62 63 65 67
55 50 45 43 42 42 42 43 42 41 41 41 41 42 40 38 39 41 41 40 39 39 39 40 41 43 44 45 45 46 46 46 45 44 42 42 42 43 43 44 44 44 43 43 44 46 47 48 49 50 51 53 54 55 56 56 57 57 57 58 58 59 60 61 63 64 66 67 68 68 69 70 70 70 69 69 69 69 69 69 69 70 71 72 74
61 58 53 49 46 46 46 47 46 44 43 44 45 47 46 45 45 45 44 43 44 45 44 43 43 44 46 46 47 48 48 48 48 47 46 45 44 45 45 46 47 48 50 50 51 52 52 53 53 53 54 55 56 57 58 59 60 61 61 62 62 63 65 66 67 69 71 73 73 73 73 74 76 77 77 78 79 78 78 78 79 79 80 81 81
62 61 57 54 52 52 51 51 50 49 46 46 48 50 50 49 50 48 46 46 47 49 49 47 45 46 48 49 50 51 50 50 51 51 50 49 49 48 48 49 50 52 55 56 57 58 58 58 58 58 58 58 58 59 60 61 62 62 63 63 64 65 67 69 70 72 73 75 76 76 77 78 79 81 82 83 84 85 85 85 85 86 87 88 88
64 63 60 57 56 56 55 54 53 52 49 48 50 52 52 52 52 52 52 53 53 53 54 52 51 50 51 52 53 53 51 51 53 54 54 54 54 54 54 54 56 58 59 60 61 62 63 63 64 64 65 64 64 64 64 65 65 66 66 67 67 67 68 70 71 73 75 76 77 78 79 80 81 83 84 85 86 87 89 90 90 91 92 93 94
66 65 64 62 60 59 57 55 54 53 53 52 53 54 55 55 55 57 58 59 59 59 61 60 58 55 52 52 53 52 51 51 53 55 56 57 58 59 59 61 62 63 64 65 65 67 68 69 70 70 71 71 71 71 71 71 71 71 72 72 72 73 73 73 73 74 75 76 78 79 80 81 82 84 85 86 88 89 91 93 94 95 96 97 98
65 65 65 64 64 63 62 59 56 54 53 54 54 55 56 58 59 61 61 61 61 62 64 64 61 58 56 56 57 57 57 57 58 60 61 62 63 64 64 65 66 67 67 68 69 71 72 74 75 76 77 78 78 78 77 76 75 75 74 74 75 75 76 77 77 78 78 79 80 81 82 83 84 85 87 88 90 92 93 95 97 98 99 101 102
63 64 65 65 65 66 66 64 61 58 57 57 58 57 58 60 61 62 62 61 61 63 65 66 65 63 62 63 63 64 64 64 65 66 67 68 69 70 70 70 70 70 70 71 72 74 75 77 77 78 79 79 80 79 79 77 76 75 74 74 75 76 77 78 79 81 82 82 83 84 85 87 88 90 91 93 94 96 98 99 100 102 104 106 107
63 63 64 65 67 68 69 68 66 62 61 61 62 61 61 63 64 64 64 63 63 64 66 67 68 67 66 66 67 68 68 68 69 70 70 71 72 73 74 74 73 72 71 71 71 71 72 73 74 74 75 75 75 75 74 74 73 73 73 74 75 76 77 79 81 82 84 85 87 88 89 91 93 95 98 100 102 103 104 105 106 108 109 111 112
65 65 63 62 64 66 69 70 69 66 63 63 65 65 64 64 66 68 69 70 70 70 70 71 72 72 71 71 71 72 73 74 75 74 75 75 76 77 78 79 78 77 75 74 74 74 74 75 76 77 78 79 79 79 79 80 80 80 81 82 83 85 86 87 89 90 92 94 96 97 98 100 101 102 103 105 106 107 108 109 110 112 113 114 115
66 68 67 65 62 61 63 66 67 66 64 64 66 69 69 67 67 68 70 72 74 74 75 75 76 77 78 78 79 79 79 79 80 81 82 83 83 84 85 85 85 85 84 83 83 83 83 83 84 85 86 88 89 89 90 91 92 93 94 95 95 96 97 98 99 100 101 103 105 106 107 108 109 110 110 111 111 113 114 115 116 118 119 121 123
66 68 70 70 68 64 61 62 63 64 65 65 67 69 71 71 70 70 71 72 73 74 75 76 77 78 79 81 82 83 83 84 84 84 85 85 86 86 86 85 85 85 85 86 87 87 88 88 89 90 92 93 94 95 95 96 97 99 100 102 103 104 105 106 107 108 109 110 110 111 112 113 114 115 116 117 118 120 121 122 124 125 126 128 129
67 68 69 71 73 72 68 65 64 64 65 67 69 70 72 73 74 74 75 75 75 75 75 76 77 78 79 80 81 83 84 85 86 87 87 87 87 87 87 87 88 89 90 92 93 94 94 94 95 96 96 97 98 98 99 100 101 102 104 105 107 108 110 111 112 114 115 116 116 117 117 117 118 119 120 121 123 124 126 127 129 130 131 132 134
68 67 68 69 73 76 76 75 72 69 67 68 70 72 74 76 77 77 77 77 78 79 79 79 79 80 80 81 81 82 83 85 86 87 87 88 88 89 91 92 94 95 96 97 98 98 98 98 99 99 100 101 101 102 103 104 105 107 108 109 111 112 113 114 116 117 119 119 120 121 122 122 123 124 125 127 128 129 131 132 134 135 137 139 141
71 71 70 70 72 74 77 79 80 79 75 73 73 75 77 78 80 81 81 82 82 83 83 84 84 84 84 85 85 85 86 86 87 88 89 90 92 94 96 97 99 100 101 101 101 101 102 102 103 103 104 104 105 106 107 108 109 111 112 113 114 115 116 117 118 120 121 122 123 124 126 127 128 130 131 132 134 136 137 139 141 143 145 146 148
71 73 73 72 72 72 73 74 78 81 81 79 79 80 81 81 82 83 84 84 85 86 87 87 88 89 90 90 91 91 92 93 93 94 95 96 98 99 100 100 101 101 101 102 102 102 102 103 104 105 106 106 107 108 109 110 111 112 113 114 115 117 118 120 121 122 124 126 127 129 130 132 134 135 137 139 140 142 143 145 146 148 149 151 152
70 73 74 74 73 72 72 73 74 78 81 83 84 84 85 85 86 86 87 88 88 89 89 90 91 92 93 94 95 96 96 97 98 99 99 100 101 101 102 102 103 103 103 104 104 104 104 105 106 106 107 108 109 110 111 112 114 115 116 117 119 120 122 123 125 126 128 129 131 132 134 136 137 139 140 142 143 145 146 148 149 150 151 152 152
70 72 74 76 76 76 77 77 77 77 79 82 85 87 88 89 90 90 91 92 93 93 94 95 95 96 96 97 98 98 99 99 100 101 102 103 104 105 105 105 106 106 106 107 107 108 108 109 109 110 110 111 112 113 114 116 117 118 119 120 121 122 123 125 126 127 129 130 132 133 135 136 138 140 142 143 145 146 147 148 148 148 147 146 145
70 71 73 75 76 76 77 78 80 80 80 81 83 85 88 90 93 94 96 97 98 98 99 99 99 100 100 101 101 101 102 102 103 103 104 104 104 105 105 105 106 107 107 108 109 109 110 111 111 112 113 113 114 115 115 116 117 118 118 119 120 121 122 124 125 127 128 129 131 133 134 136 137 138 139 140 140 140 139 139 138 137 135 134 133
69 71 72 74 75 75 76 76 77 78 79 80 81 82 84 87 89 92 95 97 100 101 101 101 101 101 101 102 103 103 104 104 105 105 105 106 106 106 105 105 105 105 105 106 106 107 107 108 108 108 109 109 109 110 110 111 112 113 114 116 117 118 120 121 122 123 124 125 126 126 127 127 128 128 128 128 128 128 128 128 127 127 126 126 125
65 68 70 72 74 75 76 77 77 77 78 79 80 82 83 85 86 87 89 91 94 97 99 100 100 100 100 101 101 102 103 104 105 105 106 106 106 106 106 106 106 105 105 104 104 103 102 102 101 101 101 101 101 102 103 104 106 107 108 109 109 110 111 112 112 113 114 114 115 115 116 117 118 118 119 119 120 121 121 121 121 121 120 119 118
59 61 64 66 69 71 73 75 77 78 79 80 81 82 84 85 86 87 88 89 90 92 93 95 96 97 97 98 99 100 101 102 102 102 102 102 101 101 101 102 101 101 100 100 98 97 96 95 94 94 94 94 95 97 98 99 100 100 100 100 100 100 101 102 102 103 104 105 106 108 109 110 111 112 113 114 114 115 114 114 114 113 112 110 109
52 54 56 58 60 63 66 69 71 73 76 77 79 81 82 84 85 87 88 89 90 90 91 91 92 92 93 93 94 94 94 94 93 92 91 90 90 89 89 88 87 86 85 85 84 83 82 82 83 84 85 86 88 89 90 90 90 91 91 92 92 93 93 94 95 97 98 99 101 102 103 105 106 107 108 109 109 109 108 108 107 106 104 102 100
47 48 49 51 52 54 56 58 61 63 65 67 68 70 72 74 76 78 79 81 82 83 83 83 83 83 82 81 81 80 79 78 77 76 75 74 74 73 72 71 71 71 71 71 72 72 73 75 76 78 79 81 81 82 83 83 84 84 85 85 86 87 88 89 91 93 95 97 98 100 101 102 103 104 105 105 105 104 103 102 101 99 97 95 93
45 45 46 46 47 48 49 50 51 52 53 54 56 57 58 59 61 62 63 65 66 67 67 67 66 65 64 64 63 63 62 62 61 61 61 61 62 62 63 63 64 65 66 67 68 69 71 72 74 75 76 76 77 77 77 78 78 79 81 82 84 86 87 89 91 93 95 97 98 99 100 101 101 102 102 101 100 99 98 96 94 93 91 89 87
43 43 43 44 45 45 45 46 46 46 46 46 47 47 48 49 50 50 51 52 53 53 53 54 54 54 54 54 54 55 55 55 55 56 56 57 58 59 60 61 62 63 64 65 66 67 68 69 70 70 71 72 72 73 74 76 77 80 82 84 86 88 89 91 92 93 95 96 97 97 98 98 98 98 97 95 94 93 91 90 88 86 84 82 80
41 42 42 43 43 43 43 43 43 43 43 43 43 43 44 45 46 46 47 48 48 49 49 50 51 51 52 52 53 54 54 54 55 55 56 56 57 57 58 58 59 60 61 62 63 64 65 65 66 68 69 70 72 73 75 78 80 82 84 86 87 89 90 91 92 92 92 93 93 93 93 93 93 92 91 89 88 86 85 83 81 78 76 74 72
41 41 42 42 42 42 42 42 42 42 42 42 43 43 44 44 45 46 47 47 48 48 49 50 51 52 52 53 54 54 54 54 54 54 54 54 55 55 55 56 57 58 59 60 61 62 63 65 67 69 71 73 74 76 78 80 82 84 86 87 89 89 90 90 89 88 88 88 88 89 89 88 88 86 85 83 82 80 77 75 73 70 69 67 65
43 43 43 43 43 42 43 43 44 44 44 44 45 45 45 45 46 46 46 47 48 48 49 50 51 52 53 53 54 54 53 52 52 52 53 54 55 56 56 56 57 59 60 61 62 63 64 66 68 71 73 74 76 78 80 82 84 86 88 89 89 89 87 86 84 83 83 84 85 85 84 84 82 81 79 78 75 72 70 67 66 64 63 62 61
45 45 44 44 44 44 44 45 45 45 45 45 46 46 46 46 46 46 46 47 48 49 50 51 52 53 53 53 53 52 52 51 52 53 54 56 57 59 59 59 60 62 63 64 65 66 68 69 71 73 74 76 78 79 82 84 86 88 89 89 87 85 82 80 80 81 81 82 82 81 81 79 78 76 74 72 69 66 64 62 61 60 59 58 58
46 46 45 45 45 45 45 46 46 46 46 46 46 46 47 47 47 47 48 48 49 50 51 52 53 54 53 53 52 52 52 52 53 54 56 57 59 60 60 61 63 65 66 67 68 70 72 73 74 75 77 78 80 81 83 85 87 88 87 86 83 80 78 78 79 80 81 80 79 79 77 76 74 72 69 66 64 62 60 58 57 56 56 56 56
47 47 47 46 46 46 46 46 47 47 47 47 47 48 48 48 49 49 49 49 50 51 52 53 53 53 53 53 53 53 53 53 54 56 58 59 60 60 61 63 65 67 69 70 72 74 75 76 77 78 79 80 81 83 84 86 86 85 83 81 78 76 77 78 80 80 80 79 78 77 75 73 70 67 64 62 60 58 56 55 54 54 54 54 54
48 48 48 48 47 47 47 47 48 48 48 48 48 49 49 49 49 49 49 49 49 50 51 52 52 53 53 53 53 53 53 54 56 58 59 60 61 62 64 66 68 70 72 75 76 77 78 78 79 79 80 81 82 83 84 84 83 82 79 77 76 76 78 79 80 80 79 78 76 75 73 70 66 63 60 59 57 55 53 52 52 52 52 52 53
49 49 49 49 48 48 48 48 48 48 48 48 48 48 49 49 49 48 48 48 49 49 50 51 51 52 52 52 52 53 54 55 57 58 59 60 62 65 67 68 71 73 76 78 79 79 79 79 79 80 80 81 82 83 82 81 80 79 77 76 76 77 79 81 81 80 78 76 75 73 70 66 63 60 57 56 54 52 51 50 50 51 51 51 51
Wind_Direction
207 205 210 229 255 270 274 269 226 108 87 84 80 70 62 54 45 40 44 49 51 53 55 56 57 58 59 62 73 95 119 137 151 161 165 166 166 166 166 167 168 170 172 178 184 185 181 180 185 189 191 196 203 207 211 217 221 224 228 235 243 248 253 257 259 261 262 264 268 270 272 272 272 274 275 276 277 278 278 279 281 283 284 286 287
218 211 208 214 227 246 270 280 276 274 278 268 143 105 60 52 47 38 42 50 52 52 56 59 60 61 62 63 67 80 105 131 149 161 166 168 170 170 170 173 176 177 180 186 196 195 189 187 190 193 198 207 212 213 219 225 226 228 236 248 258 263 266 268 267 268 269 270 271 272 276 278 277 278 278 277 277 275 275 276 277 279 281 282 284
225 221 217 218 219 225 244 263 272 274 274 272 269 259 277 39 43 32 32 43 49 47 50 61 66 66 65 65 67 74 87 116 146 162 169 173 175 176 178 182 185 185 185 190 197 198 195 195 197 198 204 211 215 218 227 231 230 233 240 251 265 274 278 277 273 272 274 275 276 275 276 278 278 279 279 279 279 278 278 280 280 280 279 279 280
228 226 224 224 223 223 224 229 239 249 249 248 254 258 256 252 244 320 1 18 38 36 35 46 58 67 73 74 77 80 85 103 131 159 175 179 181 183 187 192 193 194 196 198 201 202 202 204 206 210 213 217 220 225 233 236 238 241 241 241 256 270 277 278 274 272 274 277 279 280 279 279 278 277 276 276 278 278 279 282 283 284 284 283 281
231 231 230 229 228 228 229 227 226 229 229 231 241 253 254 247 236 229 225 221 210 96 30 30 31 46 79 89 92 92 91 99 117 150 176 183 187 192 197 200 203 206 206 207 210 212 212 213 215 220 225 228 232 237 243 248 253 255 251 249 257 263 268 273 273 274 276 276 276 276 276 277 276 275 276 277 277 277 278 279 281 282 284 285 285
235 236 236 234 233 235 236 237 236 234 234 235 237 244 255 259 256 246 234 222 209 198 205 211 24 14 54 105 107 109 104 105 116 142 166 180 190 197 203 206 211 215 215 216 221 224 226 227 226 228 233 239 244 248 253 259 263 263 261 262 268 270 270 273 274 273 271 270 269 271 272 274 274 275 277 278 280 281 281 281 280 280 282 284 286
236 237 238 238 238 237 236 237 238 239 239 238 236 234 240 253 264 267 257 242 229 219 229 260 267 269 261 236 181 163 150 139 145 155 164 176 188 198 206 212 216 220 223 227 230 230 233 237 236 236 240 245 251 256 259 264 269 268 264 264 270 274 275 273 269 266 266 267 268 268 270 271 272 275 276 276 278 281 283 284 284 284 285 286 287
236 236 238 239 242 243 240 236 235 236 239 242 241 236 234 239 247 256 259 256 248 241 243 262 273 275 271 258 236 222 212 199 200 211 214 207 200 201 208 214 218 223 229 233 234 235 239 242 242 244 247 251 257 262 264 266 269 267 263 261 264 267 269 269 266 264 266 269 269 269 269 269 270 274 276 276 277 279 282 285 287 288 288 287 287
236 237 239 242 247 252 251 248 244 243 245 249 251 245 238 244 257 260 256 252 250 250 251 256 261 266 271 267 258 250 242 229 220 224 233 237 235 228 222 222 225 227 230 234 236 239 242 243 245 247 249 253 256 260 262 262 261 261 261 262 262 261 263 267 269 268 268 269 270 271 271 270 271 274 277 278 280 281 283 285 288 288 288 287 287
235 236 239 243 247 250 252 250 247 247 249 250 252 248 242 244 253 260 262 260 257 255 256 258 259 259 261 261 259 259 258 256 251 243 239 241 245 246 243 240 239 237 234 235 240 242 241 239 241 242 244 249 252 256 258 256 255 257 260 264 265 266 267 271 273 271 269 268 270 271 271 272 274 276 278 280 281 282 283 284 286 287 287 287 286
234 234 236 240 243 246 249 249 245 244 246 248 249 249 246 244 244 245 250 255 257 257 256 256 255 254 255 256 255 255 256 262 265 262 257 256 258 257 254 250 248 247 244 242 242 244 242 240 241 244 247 248 249 254 259 259 259 260 261 264 267 269 272 273 274 274 272 271 271 271 271 274 278 279 279 280 281 282 283 284 285 285 285 285 285
234 235 236 237 241 244 247 248 245 243 245 246 247 248 249 250 249 246 245 246 249 252 252 250 250 249 250 252 253 250 248 253 262 266 266 266 266 265 261 256 252 250 249 249 248 248 247 245 246 251 253 252 253 257 259 261 263 264 263 265 268 271 273 274 275 276 274 273 271 270 270 274 278 278 278 279 280 281 282 283 283 284 284 283 283
233 234 236 237 240 244 246 246 245 244 245 246 246 248 251 253 254 251 248 247 249 251 249 246 246 247 248 249 250 249 246 247 251 256 259 262 263 263 262 260 256 252 249 250 252 253 253 253 252 253 254 255 258 261 259 257 260 263 263 262 263 265 267 270 272 272 271 270 270 270 271 274 276 277 278 278 278 279 280 280 281 281 281 281 282
234 235 236 237 238 242 245 246 244 244 246 247 246 248 252 255 258 257 252 250 251 253 251 248 247 247 249 250 250 250 248 246 245 247 249 253 257 260 262 262 262 260 256 254 255 258 260 261 259 258 258 261 263 264 261 259 260 263 264 264 263 263 263 264 266 267 268 268 269 270 272 275 277 277 277 277 277 278 280 279 278 278 278 279 280
235 236 238 239 239 240 243 244 242 242 245 246 245 247 249 254 261 263 258 253 253 255 255 254 252 250 250 251 251 251 251 250 249 248 249 250 253 257 261 262 263 264 263 261 262 265 266 267 267 267 267 269 270 268 265 261 260 261 263 264 265 266 266 265 266 266 267 267 268 270 273 276 277 278 278 277 277 279 281 280 278 277 277 277 279
234 235 237 239 241 242 243 243 242 241 242 242 244 245 245 249 258 261 259 258 259 260 258 258 257 255 253 252 252 251 252 253 253 253 254 254 256 259 261 260 259 259 260 258 258 260 263 266 268 270 271 272 272 271 268 264 263 263 263 264 265 266 268 269 269 269 268 267 268 270 272 274 276 277 278 278 278 279 280 278 276 275 275 276 278
233 235 237 239 241 243 243 242 241 241 241 241 242 243 242 244 250 254 255 258 261 262 260 259 259 258 257 257 255 253 252 254 256 256 255 256 259 261 262 260 257 256 257 257 255 256 258 261 264 267 269 271 272 272 271 270 269 268 268 269 269 270 271 272 272 272 272 271 272 273 273 275 276 276 277 277 277 277 277 275 273 273 274 275 277
232 234 236 239 240 242 243 243 242 242 242 242 242 242 243 245 246 248 251 256 261 263 262 258 257 257 258 258 258 257 255 255 256 257 256 255 257 259 260 260 258 257 258 260 260 261 262 264 265 267 268 270 271 271 271 271 271 271 271 271 272 273 273 274 274 274 275 275 276 277 277 277 277 277 278 278 277 276 274 272 271 271 272 273 274
232 232 233 236 239 241 242 243 242 242 242 242 242 242 241 242 244 248 253 257 259 260 260 259 257 257 258 258 258 258 257 254 254 254 255 255 255 256 257 259 259 259 259 262 265 268 270 270 270 270 270 270 270 269 269 269 269 270 271 271 272 274 275 276 277 277 277 278 279 279 279 279 278 277 278 278 278 276 274 273 272 272 273 275 276
232 233 234 235 238 240 241 242 241 241 242 243 244 244 242 241 244 249 255 257 256 256 259 260 259 260 262 261 258 256 255 255 254 254 255 256 257 257 258 259 260 260 260 261 263 267 269 271 272 273 273 273 272 271 270 271 271 271 272 273 274 275 276 276 277 277 277 278 279 279 278 278 277 276 277 277 278 277 277 276 275 274 275 276 277
232 234 235 236 237 238 239 240 241 241 242 244 247 248 247 245 246 249 250 251 252 255 259 261 261 261 262 262 261 259 258 259 258 256 256 257 259 260 261 261 261 261 261 262 264 266 269 270 271 273 274 274 274 273 273 273 273 274 275 276 277 277 278 278 277 277 277 277 278 278 278 278 278 278 279 279 279 279 280 279 279 278 278 278 279
232 233 234 234 235 236 237 238 240 241 241 243 245 248 249 249 249 250 250 249 251 255 257 260 262 263 262 261 261 262 262 261 260 259 259 259 261 262 262 262 262 263 264 265 267 268 270 272 273 274 275 276 276 276 275 275 275 275 276 277 278 278 279 279 278 278 277 277 277 278 278 278 279 280 280 280 280 280 280 281 281 280 281 281 281
233 234 234 233 233 234 235 236 238 240 241 242 244 246 249 250 250 250 251 252 254 257 259 261 263 264 262 258 257 258 259 259 260 261 262 264 266 266 266 265 265 266 267 268 269 271 272 273 275 276 277 278 279 280 279 279 278 278 278 278 278 279 279 279 279 278 277 277 277 278 278 279 279 280 280 280 280 280 280 280 280 281 281 281 281
234 233 233 232 232 232 233 233 234 237 241 244 246 247 248 250 251 250 251 252 254 257 260 261 261 262 261 259 259 260 263 264 264 265 265 266 267 269 269 269 268 268 269 270 271 272 273 274 275 276 277 279 280 281 281 281 281 281 280 280 280 280 280 281 281 281 281 281 280 280 280 280 280 280 280 280 280 280 280 280 279 279 280 280 281
234 234 232 231 231 232 233 233 233 236 240 243 245 246 246 247 249 250 251 251 252 254 256 258 259 260 261 263 264 265 267 268 269 269 269 269 269 270 271 271 272 272 272 272 274 275 276 277 277 278 279 279 280 281 282 282 283 283 283 283 283 284 284 284 284 284 284 284 284 283 283 283 283 282 282 281 280 280 281 280 280 280 280 282 283
231 234 235 233 233 234 234 235 236 237 238 240 241 243 244 245 246 247 249 250 250 251 252 254 256 257 259 261 263 265 266 267 268 269 270 270 272 273 273 274 275 274 274 274 276 276 277 278 279 279 280 280 280 280 281 281 281 281 282 282 282 282 282 283 283 283 283 283 282 282 281 281 281 281 281 282 281 281 281 281 281 281 282 282 283
227 230 234 235 235 236 237 238 240 241 240 240 240 241 243 244 245 246 247 249 250 251 252 254 255 257 258 259 260 262 263 265 266 267 269 270 271 272 273 274 274 273 273 273 273 273 273 273 274 275 275 276 276 276 276 276 277 277 277 277 278 278 278 278 278 279 279 279 279 279 278 278 278 278 279 279 279 279 279 280 280 280 281 281 281
228 228 230 231 232 234 235 237 240 242 243 242 241 241 243 245 246 246 247 249 251 253 254 255 257 258 260 261 262 262 263 263 265 266 268 269 270 271 273 274 274 274 275 275 275 274 273 273 272 273 273 274 274 274 274 274 274 274 275 275 275 276 276 276 276 277 278 278 278 278 278 277 277 277 277 277 277 278 278 278 279 279 279 280 280
231 230 230 230 230 231 232 233 236 238 240 241 241 242 244 246 247 247 248 249 251 253 254 255 257 258 259 261 262 264 265 266 267 267 268 269 270 271 272 273 274 275 275 276 277 276 275 274 274 275 276 276 276 277 277 277 277 277 277 277 277 278 278 278 279 279 280 280 280 280 279 279 279 278 278 278 278 279 279 279 280 280 281 281 282
232 233 234 233 232 231 231 232 234 236 238 239 240 241 242 244 246 247 248 249 250 251 252 253 254 255 256 257 259 261 263 264 266 267 268 269 269 270 271 272 272 273 274 275 276 276 276 276 276 276 277 277 277 277 278 278 279 279 279 279 279 279 280 280 280 281 281 282 282 282 281 281 281 280 280 280 281 281 281 282 282 282 282 283 283
232 233 235 237 237 235 234 234 235 237 238 240 242 242 242 242 242 243 244 246 247 248 249 250 251 252 253 254 255 257 258 260 261 262 264 265 266 268 269 270 272 273 274 275 275 276 276 277 277 277 277 277 277 277 277 278 278 279 279 279 279 280 280 280 280 281 281 282 282 282 282 282 282 282 282 282 282 282 282 282 282 282 283 283 284
233 233 235 238 239 239 238 237 236 237 240 241 242 244 244 244 244 243 244 245 246 247 249 250 251 252 253 254 255 256 257 258 259 260 262 263 265 267 269 270 271 272 273 274 274 274 275 275 275 275 275 276 276 276 276 277 277 277 277 278 278 279 279 280 280 280 281 281 282 282 282 282 283 283 283 283 283 284 284 284 284 284 284 285 285
236 235 236 237 239 240 241 240 238 238 239 241 241 242 243 244 245 246 247 248 249 250 251 252 253 254 255 256 256 257 259 260 261 262 264 265 266 268 269 269 270 270 271 271 272 272 272 272 272 273 273 273 274 274 275 275 276 276 277 277 277 278 279 279 280 280 281 281 282 282 283 283 283 284 284 284 284 284 285 285 285 285 285 285 285
238 236 235 237 239 241 243 244 243 242 241 241 242 243 243 244 244 246 247 249 250 252 253 254 255 256 257 258 259 260 261 262 263 264 265 266 266 267 267 268 269 270 270 271 271 272 273 273 274 274 274 275 275 276 276 277 277 278 278 279 279 279 280 280 281 281 282 282 283 283 284 284 284 285 285 285 285 285 285 285 286 286 286 286 286
241 239 237 238 241 243 244 245 246 246 245 244 244 244 245 246 247 248 249 251 252 253 255 256 256 257 258 258 259 260 261 262 263 264 265 266 267 268 269 270 271 271 272 273 273 274 275 275 276 277 277 277 278 279 279 280 280 281 281 282 282 282 283 283 284 284 284 285 285 285 286 286 286 286 286 286 286 287 286 286 286 286 286 286 286
243 242 242 242 244 245 246 246 247 248 248 247 247 247 248 249 250 252 253 255 256 258 259 259 260 260 261 262 262 263 265 266 267 268 269 270 271 272 272 273 273 274 274 275 275 276 277 277 278 279 279 280 280 281 282 282 283 284 284 284 285 285 286 286 286 287 287 287 287 287 287 287 287 287 287 287 286 286 286 286 286 286 287 287 287
244 244 244 245 246 246 248 249 249 250 250 249 250 250 251 252 253 254 255 256 258 259 261 262 263 264 264 265 266 267 268 270 271 272 273 274 275 276 276 277 277 277 278 278 278 279 279 280 281 281 282 282 283 283 284 284 285 286 286 286 287 287 287 287 287 287 287 287 287 287 287 286 286 286 286 286 286 286 286 287 287 287 288 288 288
245 245 246 246 247 247 248 249 250 251 252 252 252 252 253 253 254 255 256 257 258 259 261 262 264 265 266 267 268 269 270 271 272 273 274 275 275 276 277 278 279 279 280 281 282 282 283 284 284 284 285 285 285 285 285 286 286 286 287 287 287 287 287 287 287 287 287 287 287 287 287 287 287 287 287 287 287 288 288 288 289 289 289 289 289
246 247 247 248 248 249 250 250 251 252 253 253 254 255 255 255 256 256 257 258 259 260 261 263 264 265 266 268 268 269 270 271 272 273 274 275 275 276 277 278 279 280 280 281 282 283 284 284 284 284 285 285 285 285 285 286 286 286 287 287 287 287 288 288 288 288 289 289 289 289 289 289 289 289 289 289 289 290 290 291 291 291 291 291 291
248 248 249 249 250 250 251 251 252 253 254 255 256 256 257 257 258 258 259 260 261 263 264 264 265 266 267 268 269 269 270 271 272 273 274 275 276 277 278 279 280 280 281 282 282 283 283 283 283 283 283 284 284 285 286 286 287 287 288 289 289 289 290 290 291 291 291 291 292 292 292 292 292 292 292 292 292 293 293 294 294 294 295 295 295
250 250 251 251 251 251 252 252 253 253 254 255 256 257 257 258 258 259 260 261 262 263 264 265 266 267 268 269 270 271 272 273 274 275 276 277 278 279 280 280 281 282 282 283 283 283 283 283 284 284 285 286 287 288 289 289 290 291 292 292 293 294 294 295 295 295 295 295 295 295 295 295 294 294 295 295 296 296 297 297 298 298 298 298 298
253 253 253 254 254 254 254 254 254 255 255 256 257 258 259 260 260 260 261 262 263 264 265 266 267 268 269 270 271 272 273 274 275 277 278 279 280 281 282 282 283 284 284 285 286 286 286 287 288 289 290 291 291 292 293 294 295 296 296 297 297 297 298 298 298 298 298 298 297 297 297 297 297 297 297 298 299 299 299 300 300 300 300 300 300
253 253 254 254 255 255 255 256 256 257 258 259 260 261 262 263 263 264 264 265 266 266 267 268 269 269 270 271 272 273 275 276 277 279 280 281 282 283 284 285 286 287 288 289 290 290 291 292 293 294 295 296 297 298 298 299 299 300 300 300 300 300 299 299 299 299 299 299 299 298 298 298 299 299 300 300 301 301 301 301 301 301 301 301 301
251 252 252 253 253 254 255 255 256 257 259 260 261 262 263 264 265 266 267 268 269 269 270 271 271 272 272 273 274 275 277 278 279 281 282 283 285 286 288 289 290 291 292 292 292 293 294 296 297 298 299 300 301 301 301 302 302 302 302 302 302 302 302 301 302 301 301 301 300 300 300 300 301 301 302 302 303 302 302 302 302 302 301 301 302
252 253 253 254 254 255 255 256 256 257 258 259 261 261 263 264 265 267 268 269 270 272 273 273 274 275 275 276 277 278 280 282 283 284 285 286 287 289 290 291 293 294 295 296 296 297 299 300 300 301 301 302 302 302 302 303 304 304 304 304 304 304 304 304 304 303 303 303 302 302 302 303 303 303 304 304 304 303 303 303 303 303 303 303 304
255 256 256 257 258 258 258 259 259 260 261 262 262 263 264 265 266 267 269 271 273 274 275 276 277 277 278 278 279 282 283 284 285 286 287 288 289 289 290 292 295 298 299 300 301 302 303 303 303 303 303 303 303 303 304 304 305 306 306 306 306 306 306 306 305 305 305 305 305 305 305 305 305 305 305 305 305 305 304 305 305 305 306 306 306
257 258 258 259 259 260 261 262 262 263 263 264 265 265 266 266 267 269 270 272 273 275 276 277 278 279 279 279 281 283 284 284 285 286 287 289 290 290 290 292 295 299 301 302 303 305 306 306 306 306 305 305 305 305 305 306 307 308 308 308 308 307 307 307 307 308 308 308 307 307 307 307 307 307 307 307 306 306 306 307 307 307 308 308 309
259 259 259 259 260 261 262 263 264 264 265 266 266 267 267 268 269 270 271 272 274 275 276 276 277 277 278 279 280 281 282 283 285 286 287 290 292 293 293 294 297 299 301 303 304 306 307 308 308 308 307 307 306 306 307 308 308 309 309 309 309 308 309 310 311 311 311 310 309 309 309 309 309 309 309 308 308 308 308 308 309 309 310 310 311
259 259 260 260 261 262 263 264 265 265 266 267 267 268 268 269 270 271 271 272 273 274 274 275 275 275 276 277 278 280 281 282 284 286 289 291 294 295 296 297 299 300 302 304 305 307 308 309 309 309 308 308 308 308 308 309 310 311 311 311 310 311 312 313 314 314 313 312 312 311 312 312 311 311 310 309 309 309 309 310 311 311 312 312 313
259 260 260 261 261 262 263 263 264 265 266 267 267 268 269 269 270 271 272 272 273 273 273 273 274 274 276 277 278 279 281 283 286 289 292 294 295 297 299 300 301 302 304 305 306 307 308 309 309 309 309 308 309 309 310 311 312 313 313 312 313 313 315 316 316 316 315 314 313 313 313 313 313 312 311 310 310 310 311 312 312 313 314 314 315
259 260 261 262 262 263 264 265 266 266 267 268 268 269 269 270 270 271 271 271 271 271 272 273 274 275 277 278 279 281 283 286 289 291 293 295 296 298 300 301 302 304 304 305 306 307 308 309 309 309 309 309 310 311 312 313 314 314 314 314 315 316 317 318 318 317 316 315 315 315 315 314 313 312 311 310 310 311 312 313 314 314 315 316 317
Height
10976 10977 10978 10978 10978 10978 10978 10978 10978 10978 10978 10977 10977 10977 10976 10976 10975 10974 10974 10974 10974 10973 10973 10972 10971 10970 10969 10968 10966 10966 10965 10966 10967 10969 10971 10972 10974 10975 10977 10979 10980 10981 10983 10985 10987 10986 10986 10986 10986 10987 10988 10989 10990 10990 10991 10992 10993 10994 10996 10997 10998 10998 10998 10998 10997 10996 10996 10995 10994 10993 10993 10992 10992 10991 10991 10990 10990 10989 10989 10988 10988 10987 10987 10987 10985
10975 10976 10976 10977 10977 10978 10978 10979 10979 10979 10978 10978 10978 10977 10977 10976 10976 10976 10976 10976 10975 10975 10974 10974 10973 10973 10972 10971 10970 10969 10969 10969 10970 10971 10973 10975 10976 10977 10978 10979 10979 10980 10982 10985 10987 10986 10984 10983 10984 10986 10987 10989 10990 10990 10991 10992 10993 10993 10995 10997 10998 10999 10999 10998 10997 10996 10995 10994 10993 10992 10992 10991 10990 10989 10989 10988 10987 10987 10986 10986 10986 10985 10984 10984 10983
10974 10975 10975 10975 10976 10977 10977 10978 10978 10979 10979 10979 10978 10978 10977 10977 10977 10977 10977 10977 10976 10976 10976 10975 10975 10975 10974 10973 10973 10972 10972 10973 10974 10976 10977 10977 10977 10978 10978 10978 10978 10978 10979 10980 10981 10982 10983 10984 10985 10986 10988 10989 10989 10990 10990 10991 10992 10992 10993 10995 10996 10998 10999 10998 10997 10996 10994 10993 10992 10991 10991 10990 10988 10987 10986 10986 10985 10984 10984 10983 10983 10982 10982 10981 10980
10972 10973 10973 10974 10974 10975 10975 10976 10977 10977 10977 10978 10977 10977 10977 10977 10977 10977 10977 10977 10977 10977 10977 10976 10976 10976 10975 10975 10975 10974 10974 10975 10976 10978 10980 10979 10979 10980 10980 10980 10980 10980 10980 10980 10981 10982 10984 10985 10986 10987 10988 10988 10988 10989 10989 10989 10990 10991 10992 10993 10994 10996 10998 10998 10996 10994 10993 10992 10991 10989 10988 10987 10986 10985 10984 10984 10983 10982 10981 10980 10979 10978 10978 10977 10977
10971 10971 10971 10972 10973 10973 10974 10974 10975 10975 10976 10976 10976 10976 10976 10976 10976 10977 10977 10977 10977 10977 10977 10977 10977 10977 10977 10976 10976 10976 10976 10976 10977 10978 10980 10980 10980 10980 10981 10981 10982 10982 10982 10983 10984 10984 10984 10985 10986 10986 10987 10987 10988 10988 10988 10989 10990 10990 10991 10992 10993 10994 10996 10995 10993 10993 10991 10989 10987 10985 10983 10982 10981 10980 10980 10980 10980 10978 10977 10977 10976 10975 10974 10973 10972
10969 10969 10970 10971 10971 10972 10973 10974 10974 10974 10974 10975 10975 10976 10976 10976 10976 10976 10976 10976 10976 10976 10976 10977 10977 10977 10977 10977 10977 10977 10977 10977 10977 10978 10979 10979 10979 10980 10980 10981 10981 10982 10982 10983 10984 10984 10984 10984 10985 10985 10985 10986 10986 10987 10988 10988 10988 10988 10989 10990 10990 10990 10991 10990 10989 10988 10986 10983 10981 10980 10979 10977 10976 10976 10976 10976 10975 10974 10973 10973 10972 10972 10971 10970 10968
10966 10967 10967 10968 10969 10970 10971 10972 10972 10972 10973 10973 10973 10974 10974 10975 10975 10976 10976 10976 10976 10976 10977 10977 10977 10977 10977 10977 10977 10978 10978 10978 10978 10979 10980 10979 10979 10979 10979 10979 10980 10981 10981 10982 10983 10983 10982 10982 10983 10983 10983 10985 10985 10986 10987 10987 10986 10985 10985 10985 10985 10985 10985 10984 10982 10980 10978 10977 10977 10976 10975 10973 10972 10972 10972 10971 10971 10970 10969 10968 10968 10968 10968 10966 10965
10962 10963 10964 10965 10967 10968 10968 10969 10969 10970 10970 10971 10972 10972 10973 10973 10974 10974 10975 10975 10976 10976 10977 10977 10977 10977 10977 10977 10977 10977 10977 10978 10978 10979 10979 10979 10979 10979 10979 10979 10979 10980 10981 10981 10980 10980 10980 10980 10981 10982 10983 10984 10985 10986 10986 10985 10984 10981 10978 10977 10978 10979 10979 10977 10975 10975 10974 10973 10972 10971 10970 10969 10968 10968 10968 10967 10966 10966 10965 10964 10964 10963 10964 10963 10961
10958 10959 10961 10962 10964 10966 10967 10967 10968 10968 10969 10970 10971 10971 10971 10972 10972 10973 10973 10974 10974 10975 10976 10976 10976 10976 10976 10976 10976 10976 10976 10976 10977 10978 10978 10978 10979 10979 10979 10979 10979 10979 10979 10979 10978 10978 10978 10979 10980 10980 10981 10982 10983 10984 10983 10981 10979 10976 10972 10972 10973 10974 10973 10972 10971 10971 10970 10968 10967 10966 10965 10965 10965 10964 10964 10963 10963 10962 10961 10960 10959 10958 10958 10958 10957
10954 10956 10957 10959 10961 10962 10963 10964 10965 10965 10966 10967 10968 10969 10970 10970 10970 10971 10971 10972 10973 10973 10974 10975 10975 10975 10974 10974 10974 10974 10975 10975 10975 10975 10976 10977 10977 10977 10978 10978 10978 10978 10978 10977 10977 10977 10977 10977 10977 10977 10978 10978 10979 10980 10977 10975 10973 10972 10970 10970 10970 10970 10969 10969 10968 10967 10965 10963 10962 10961 10960 10960 10960 10960 10959 10959 10958 10957 10957 10956 10955 10953 10952 10952 10952
10950 10952 10954 10955 10956 10957 10959 10959 10960 10960 10961 10963 10964 10966 10966 10967 10967 10968 10968 10969 10970 10971 10972 10972 10973 10973 10973 10972 10972 10972 10973 10973 10973 10973 10974 10974 10975 10976 10976 10976 10976 10976 10976 10976 10976 10975 10975 10975 10975 10975 10975 10975 10975 10974 10971 10970 10970 10969 10968 10968 10968 10967 10966 10965 10964 10963 10961 10960 10958 10957 10956 10955 10955 10955 10954 10953 10953 10952 10952 10951 10950 10948 10947 10946 10946
10946 10948 10949 10951 10951 10953 10954 10954 10955 10956 10957 10959 10960 10961 10962 10963 10964 10964 10965 10965 10966 10968 10968 10969 10969 10970 10970 10970 10970 10970 10970 10970 10970 10971 10972 10972 10973 10973 10974 10973 10973 10973 10973 10973 10973 10973 10973 10973 10972 10972 10971 10970 10970 10968 10967 10968 10967 10966 10965 10964 10963 10963 10961 10960 10959 10958 10957 10956 10954 10953 10952 10951 10951 10950 10949 10948 10947 10946 10946 10945 10944 10943 10942 10941 10940
10942 10943 10945 10946 10948 10948 10948 10949 10951 10952 10953 10954 10955 10957 10958 10960 10960 10961 10961 10962 10963 10964 10965 10965 10966 10966 10967 10967 10967 10967 10967 10967 10967 10968 10968 10969 10970 10970 10970 10970 10970 10969 10970 10970 10970 10969 10969 10970 10970 10968 10967 10966 10965 10964 10964 10965 10964 10962 10961 10960 10959 10958 10957 10955 10955 10954 10953 10951 10950 10948 10947 10947 10946 10945 10944 10943 10941 10941 10940 10939 10938 10936 10935 10934 10933
10937 10938 10939 10941 10943 10943 10943 10945 10947 10949 10949 10950 10952 10953 10955 10956 10957 10957 10957 10958 10959 10960 10961 10962 10962 10963 10963 10963 10964 10964 10964 10964 10964 10964 10964 10965 10966 10966 10966 10966 10966 10966 10966 10966 10966 10965 10965 10965 10966 10964 10963 10962 10961 10960 10959 10960 10959 10957 10956 10955 10954 10953 10952 10951 10950 10949 10948 10946 10945 10943 10942 10941 10940 10939 10938 10937 10935 10935 10934 10933 10932 10930 10928 10927 10926
10931 10932 10933 10935 10937 10938 10939 10940 10943 10944 10945 10946 10948 10949 10951 10953 10953 10952 10952 10953 10954 10956 10957 10957 10958 10959 10959 10959 10959 10959 10959 10959 10959 10960 10960 10961 10961 10961 10961 10961 10961 10962 10962 10962 10961 10960 10960 10961 10960 10959 10958 10957 10956 10954 10954 10953 10952 10951 10950 10949 10948 10947 10947 10946 10945 10944 10943 10941 10939 10938 10937 10935 10935 10934 10932 10931 10929 10928 10927 10926 10925 10923 10921 10920 10919
10925 10927 10928 10930 10932 10933 10935 10937 10938 10940 10941 10942 10944 10945 10948 10949 10948 10946 10947 10948 10949 10950 10951 10952 10954 10954 10954 10955 10954 10954 10954 10954 10955 10955 10955 10955 10956 10956 10956 10956 10957 10957 10957 10957 10956 10955 10955 10955 10954 10953 10952 10951 10950 10949 10948 10947 10947 10946 10945 10944 10943 10942 10941 10940 10939 10938 10937 10935 10934 10932 10931 10929 10928 10927 10926 10924 10923 10921 10920 10919 10917 10916 10914 10912 10911
10919 10921 10924 10926 10927 10928 10931 10932 10933 10935 10936 10938 10939 10940 10943 10944 10943 10941 10942 10943 10943 10944 10946 10947 10948 10948 10949 10949 10949 10949 10949 10949 10949 10950 10950 10950 10950 10951 10951 10951 10951 10952 10951 10951 10951 10950 10949 10949 10949 10948 10946 10945 10944 10943 10942 10941 10941 10940 10939 10938 10937 10936 10935 10934 10933 10931 10930 10928 10927 10926 10924 10923 10921 10920 10919 10918 10916 10914 10912 10910 10909 10907 10906 10904 10902
10914 10916 10918 10921 10922 10924 10926 10927 10928 10929 10931 10933 10934 10935 10937 10938 10936 10935 10936 10937 10937 10938 10940 10941 10942 10942 10943 10944 10943 10943 10943 10944 10944 10944 10944 10944 10945 10945 10945 10945 10945 10945 10945 10945 10945 10944 10944 10943 10943 10942 10940 10939 10937 10936 10935 10934 10934 10933 10933 10932 10930 10929 10928 10927 10925 10924 10923 10921 10920 10919 10917 10915 10914 10912 10911 10909 10908 10906 10904 10902 10900 10898 10897 10895 10893
10908 10910 10913 10915 10917 10918 10920 10921 10922 10924 10925 10927 10928 10928 10930 10932 10931 10930 10931 10931 10931 10932 10933 10934 10935 10936 10937 10938 10938 10937 10937 10937 10938 10938 10938 10938 10938 10939 10939 10939 10939 10939 10938 10938 10937 10937 10936 10936 10935 10934 10933 10932 10931 10930 10928 10927 10926 10926 10925 10924 10923 10922 10921 10919 10918 10916 10915 10913 10912 10911 10909 10907 10905 10903 10901 10899 10898 10897 10895 10893 10891 10889 10888 10886 10884
10901 10904 10907 10909 10911 10912 10913 10915 10917 10918 10920 10921 10920 10921 10923 10926 10925 10925 10926 10926 10926 10926 10926 10927 10928 10929 10930 10930 10930 10930 10930 10931 10932 10932 10932 10932 10932 10932 10932 10932 10932 10932 10931 10930 10929 10928 10927 10927 10926 10925 10925 10924 10923 10922 10921 10919 10918 10918 10917 10916 10915 10914 10913 10911 10910 10908 10906 10904 10903 10901 10900 10898 10896 10893 10891 10889 10887 10886 10884 10883 10881 10879 10877 10876 10874
10894 10897 10900 10901 10903 10905 10906 10908 10910 10912 10915 10915 10914 10914 10917 10919 10920 10920 10921 10920 10920 10919 10920 10920 10921 10921 10921 10922 10922 10922 10924 10926 10926 10926 10926 10926 10925 10925 10925 10925 10925 10924 10923 10922 10921 10920 10919 10918 10917 10916 10916 10915 10914 10913 10912 10911 10909 10909 10908 10907 10907 10906 10905 10903 10901 10899 10897 10895 10893 10891 10888 10886 10884 10882 10880 10878 10876 10874 10872 10871 10869 10867 10865 10864 10862
10887 10890 10892 10893 10894 10897 10900 10902 10904 10907 10909 10909 10908 10908 10911 10913 10914 10915 10914 10913 10913 10913 10914 10914 10913 10912 10914 10916 10916 10916 10918 10919 10918 10918 10919 10919 10919 10919 10918 10918 10917 10916 10915 10914 10913 10912 10910 10909 10908 10907 10906 10906 10905 10904 10903 10902 10901 10900 10899 10898 10898 10897 10896 10894 10892 10890 10887 10884 10882 10879 10877 10875 10873 10871 10869 10867 10865 10863 10861 10858 10856 10854 10852 10850 10848
10879 10881 10883 10884 10887 10890 10893 10895 10898 10900 10902 10903 10903 10904 10906 10907 10908 10907 10906 10906 10908 10908 10907 10906 10906 10906 10909 10911 10910 10909 10910 10910 10910 10910 10911 10911 10911 10911 10911 10910 10909 10908 10907 10906 10905 10903 10902 10901 10899 10898 10897 10896 10895 10894 10893 10892 10892 10891 10890 10889 10888 10887 10886 10884 10882 10879 10877 10874 10871 10869 10866 10864 10862 10860 10858 10856 10853 10851 10849 10846 10844 10841 10839 10837 10834
10870 10873 10875 10877 10880 10883 10885 10888 10891 10893 10895 10896 10897 10899 10901 10901 10901 10900 10899 10901 10903 10902 10901 10900 10900 10901 10902 10903 10903 10902 10901 10901 10902 10902 10902 10902 10902 10902 10902 10901 10900 10900 10899 10897 10896 10895 10894 10892 10891 10889 10888 10886 10885 10884 10883 10882 10882 10881 10880 10879 10878 10876 10874 10872 10869 10867 10864 10862 10860 10857 10855 10853 10851 10849 10847 10844 10842 10839 10837 10834 10831 10829 10826 10824 10821
10862 10865 10867 10870 10873 10875 10878 10880 10883 10885 10887 10889 10890 10892 10893 10893 10892 10892 10893 10895 10896 10895 10894 10894 10893 10894 10894 10895 10895 10894 10894 10893 10893 10893 10893 10893 10893 10893 10892 10892 10891 10890 10889 10888 10887 10886 10885 10883 10882 10880 10879 10877 10876 10874 10873 10872 10872 10871 10870 10868 10866 10864 10861 10859 10856 10854 10851 10849 10847 10845 10843 10840 10838 10836 10833 10831 10828 10826 10823 10821 10818 10815 10812 10809 10807
10855 10857 10859 10862 10865 10868 10870 10872 10875 10877 10879 10881 10883 10884 10885 10885 10884 10885 10886 10887 10887 10887 10887 10886 10886 10887 10887 10888 10888 10887 10886 10886 10885 10885 10885 10885 10884 10884 10883 10883 10882 10881 10880 10880 10879 10877 10876 10874 10873 10871 10870 10868 10867 10865 10864 10863 10862 10861 10859 10857 10855 10852 10850 10847 10845 10843 10841 10839 10837 10834 10831 10828 10825 10822 10819 10817 10814 10812 10809 10806 10803 10800 10797 10793 10790
10846 10849 10851 10854 10857 10859 10862 10864 10867 10869 10871 10873 10875 10877 10877 10877 10877 10877 10878 10878 10879 10879 10879 10879 10879 10879 10879 10879 10880 10880 10879 10878 10878 10877 10877 10876 10875 10875 10874 10873 10873 10873 10872 10872 10871 10869 10867 10866 10864 10863 10861 10860 10858 10857 10855 10854 10852 10851 10849 10846 10843 10840 10838 10835 10833 10832 10830 10827 10825 10822 10818 10815 10812 10809 10806 10803 10800 10797 10793 10790 10787 10783 10780 10777 10773
10837 10840 10843 10846 10849 10851 10854 10856 10859 10861 10863 10865 10867 10868 10869 10870 10870 10869 10869 10870 10870 10871 10871 10871 10871 10871 10871 10871 10870 10870 10870 10870 10869 10869 10868 10866 10866 10865 10864 10863 10863 10862 10862 10861 10860 10859 10857 10855 10854 10853 10851 10849 10847 10846 10844 10843 10841 10839 10836 10833 10830 10827 10825 10823 10821 10818 10816 10813 10810 10807 10803 10800 10797 10794 10791 10787 10784 10780 10777 10773 10770 10766 10762 10759 10755
10828 10831 10834 10837 10840 10843 10845 10847 10850 10852 10854 10857 10858 10860 10861 10861 10862 10862 10861 10861 10862 10862 10862 10863 10863 10863 10863 10862 10861 10861 10861 10860 10859 10859 10858 10857 10856 10855 10855 10854 10853 10852 10851 10849 10848 10846 10845 10844 10843 10842 10840 10838 10836 10834 10832 10830 10828 10825 10823 10820 10817 10814 10811 10809 10806 10803 10800 10797 10794 10791 10787 10784 10780 10777 10773 10770 10767 10763 10759 10755 10751 10747 10743 10740 10736
10820 10822 10825 10828 10831 10834 10836 10838 10840 10842 10845 10847 10849 10850 10852 10852 10853 10853 10853 10853 10853 10853 10853 10853 10853 10853 10853 10853 10852 10852 10851 10851 10850 10849 10848 10847 10847 10846 10845 10844 10843 10842 10840 10838 10837 10835 10834 10833 10832 10830 10828 10826 10824 10821 10819 10816 10814 10811 10809 10806 10803 10800 10797 10794 10790 10787 10784 10780 10777 10773 10770 10766 10763 10759 10756 10752 10748 10745 10741 10736 10732 10727 10723 10719 10715
10812 10814 10816 10819 10821 10824 10827 10829 10831 10833 10835 10837 10839 10840 10841 10842 10843 10843 10843 10844 10844 10844 10844 10844 10844 10843 10843 10843 10843 10842 10841 10841 10840 10839 10839 10838 10837 10836 10835 10834 10832 10831 10829 10827 10826 10824 10823 10821 10819 10817 10815 10813 10810 10808 10806 10803 10801 10798 10794 10791 10788 10785 10782 10778 10775 10771 10768 10764 10760 10756 10752 10748 10745 10741 10737 10733 10729 10726 10722 10717 10713 10708 10703 10699 10694
10803 10805 10808 10810 10812 10815 10817 10820 10822 10824 10826 10828 10829 10830 10831 10831 10832 10833 10833 10833 10833 10833 10833 10833 10834 10834 10834 10833 10833 10832 10831 10830 10829 10829 10828 10827 10827 10826 10824 10823 10821 10820 10818 10816 10815 10813 10811 10809 10807 10804 10802 10799 10797 10794 10792 10789 10786 10783 10780 10776 10773 10770 10766 10763 10759 10755 10751 10747 10743 10739 10735 10731 10726 10722 10718 10714 10709 10705 10700 10696 10691 10686 10681 10677 10672
10795 10797 10799 10802 10804 10806 10809 10811 10813 10815 10816 10817 10818 10819 10820 10821 10822 10822 10823 10823 10823 10823 10823 10823 10823 10823 10823 10822 10822 10821 10820 10820 10819 10818 10818 10817 10816 10814 10813 10811 10809 10808 10806 10804 10802 10800 10798 10796 10793 10791 10789 10786 10784 10781 10778 10775 10771 10768 10765 10762 10758 10755 10751 10747 10744 10740 10736 10731 10726 10721 10717 10712 10708 10703 10698 10694 10689 10684 10679 10674 10670 10665 10660 10655 10650
10786 10789 10792 10794 10796 10798 10800 10802 10804 10806 10807 10807 10808 10808 10809 10810 10811 10812 10812 10812 10812 10812 10813 10813 10812 10812 10811 10811 10811 10810 10809 10809 10808 10807 10806 10805 10803 10802 10800 10799 10797 10795 10794 10792 10789 10787 10785 10783 10780 10778 10776 10773 10769 10766 10762 10759 10756 10753 10750 10746 10743 10739 10735 10731 10727 10723 10719 10714 10709 10704 10699 10694 10689 10683 10678 10673 10668 10663 10657 10652 10647 10642 10637 10631 10626
10779 10782 10784 10787 10788 10790 10791 10793 10794 10796 10797 10798 10798 10799 10799 10799 10800 10800 10801 10801 10801 10801 10801 10800 10800 10800 10800 10800 10799 10799 10798 10797 10796 10795 10794 10792 10791 10789 10788 10786 10784 10782 10780 10778 10776 10774 10771 10769 10767 10764 10761 10758 10754 10751 10747 10743 10740 10737 10734 10730 10726 10722 10718 10714 10710 10705 10701 10696 10691 10685 10680 10674 10669 10663 10657 10651 10645 10640 10634 10629 10624 10618 10613 10607 10602
10771 10774 10776 10778 10780 10781 10782 10784 10785 10786 10787 10788 10789 10790 10790 10790 10790 10790 10790 10790 10790 10790 10789 10788 10788 10788 10788 10788 10787 10786 10785 10784 10783 10782 10780 10779 10778 10776 10775 10773 10771 10769 10767 10765 10763 10761 10758 10756 10753 10750 10746 10743 10739 10735 10732 10728 10724 10720 10716 10713 10709 10705 10700 10695 10691 10686 10681 10676 10670 10665 10659 10653 10647 10642 10636 10630 10624 10618 10613 10607 10601 10596 10591 10586 10581
10762 10764 10766 10768 10770 10772 10773 10774 10775 10776 10777 10778 10779 10780 10781 10781 10781 10781 10781 10781 10780 10779 10778 10777 10777 10777 10777 10776 10775 10774 10773 10772 10770 10769 10767 10766 10765 10763 10761 10758 10757 10755 10754 10752 10750 10747 10745 10742 10739 10735 10732 10728 10724 10720 10716 10712 10708 10704 10700 10696 10692 10688 10683 10678 10673 10668 10663 10658 10652 10646 10640 10634 10628 10622 10617 10611 10605 10598 10592 10587 10582 10577 10572 10567 10561
10754 10755 10757 10759 10761 10762 10763 10764 10765 10766 10767 10768 10769 10770 10770 10771 10772 10772 10772 10771 10770 10769 10768 10768 10767 10767 10766 10765 10764 10763 10761 10760 10759 10757 10756 10754 10753 10750 10748 10746 10744 10742 10740 10738 10735 10733 10730 10727 10724 10720 10716 10713 10709 10705 10701 10698 10694 10691 10687 10682 10677 10672 10667 10662 10657 10651 10645 10640 10634 10628 10622 10616 10609 10604 10598 10592 10585 10579 10574 10568 10563 10558 10552 10547 10541
10746 10747 10749 10750 10752 10753 10754 10755 10756 10757 10758 10758 10759 10759 10760 10761 10761 10762 10762 10761 10760 10760 10759 10759 10758 10757 10756 10755 10753 10752 10751 10750 10748 10747 10746 10744 10742 10740 10737 10735 10733 10731 10728 10726 10723 10721 10718 10714 10710 10707 10703 10699 10696 10692 10689 10686 10683 10679 10675 10670 10665 10660 10654 10648 10642 10636 10630 10623 10617 10611 10605 10599 10593 10586 10580 10574 10568 10562 10557 10550 10544 10538 10532 10527 10521
10739 10740 10741 10743 10744 10745 10746 10746 10747 10748 10748 10749 10749 10750 10750 10751 10751 10752 10752 10751 10750 10749 10749 10748 10748 10747 10746 10745 10743 10742 10741 10740 10739 10738 10736 10734 10731 10729 10727 10725 10722 10720 10717 10715 10713 10710 10707 10703 10699 10696 10692 10689 10685 10682 10679 10676 10671 10667 10662 10657 10652 10647 10641 10634 10628 10622 10616 10609 10603 10597 10590 10584 10577 10570 10563 10557 10551 10546 10540 10533 10526 10520 10514 10508 10501
10732 10733 10734 10735 10736 10737 10737 10738 10739 10739 10740 10740 10740 10741 10741 10741 10742 10742 10742 10741 10740 10740 10739 10739 10738 10737 10736 10734 10733 10732 10731 10730 10729 10728 10726 10724 10721 10719 10717 10715 10713 10710 10707 10705 10702 10699 10696 10693 10689 10686 10683 10679 10676 10672 10668 10664 10660 10655 10650 10644 10639 10633 10628 10621 10615 10609 10602 10595 10589 10582 10575 10569 10562 10555 10548 10542 10536 10530 10523 10516 10510 10503 10497 10491 10485
10725 10726 10727 10728 10728 10729 10729 10730 10730 10731 10732 10732 10732 10732 10732 10732 10733 10733 10732 10732 10731 10731 10731 10730 10729 10728 10726 10724 10723 10723 10722 10721 10720 10719 10717 10715 10712 10710 10708 10706 10704 10701 10698 10695 10692 10689 10686 10683 10679 10676 10672 10669 10665 10661 10657 10653 10648 10643 10638 10632 10627 10621 10616 10609 10603 10596 10589 10582 10575 10568 10561 10554 10547 10540 10534 10527 10521 10514 10507 10501 10495 10488 10482 10476 10470
10719 10720 10720 10721 10721 10722 10722 10723 10723 10724 10724 10724 10725 10725 10724 10724 10724 10724 10724 10723 10723 10723 10723 10722 10721 10719 10718 10716 10715 10715 10714 10714 10713 10711 10709 10707 10704 10702 10700 10697 10695 10692 10689 10687 10683 10680 10677 10674 10670 10666 10662 10658 10655 10651 10646 10642 10637 10632 10627 10621 10615 10609 10603 10597 10591 10584 10577 10569 10561 10553 10546 10539 10532 10526 10520 10514 10508 10501 10494 10487 10481 10475 10470 10464 10458
10712 10713 10714 10714 10714 10715 10716 10716 10717 10717 10717 10718 10718 10718 10718 10717 10717 10717 10716 10716 10716 10715 10715 10714 10713 10712 10710 10709 10708 10708 10707 10707 10706 10704 10701 10698 10696 10694 10691 10689 10686 10684 10681 10678 10675 10672 10668 10665 10661 10657 10653 10649 10645 10641 10637 10632 10627 10621 10616 10610 10604 10597 10591 10584 10578 10571 10563 10555 10547 10540 10533 10526 10520 10513 10507 10501 10495 10488 10482 10476 10470 10464 10459 10453 10448
10706 10706 10707 10708 10708 10709 10710 10710 10710 10711 10711 10711 10711 10711 10711 10711 10711 10710 10710 10709 10709 10708 10707 10706 10705 10704 10703 10702 10701 10701 10700 10699 10697 10695 10692 10690 10688 10686 10684 10681 10678 10676 10673 10670 10666 10663 10660 10656 10652 10648 10644 10640 10636 10631 10627 10621 10616 10610 10604 10598 10592 10585 10578 10571 10565 10558 10550 10543 10535 10528 10521 10515 10508 10502 10496 10490 10484 10477 10471 10465 10459 10454 10449 10443 10438
10699 10700 10701 10701 10702 10703 10703 10703 10704 10704 10704 10704 10704 10704 10704 10704 10704 10704 10703 10702 10701 10700 10699 10698 10697 10696 10695 10694 10694 10693 10692 10691 10688 10686 10684 10682 10680 10678 10676 10673 10670 10667 10664 10661 10658 10655 10651 10648 10644 10639 10635 10631 10626 10622 10616 10611 10605 10599 10592 10586 10579 10573 10566 10559 10552 10546 10539 10531 10524 10517 10510 10504 10498 10491 10485 10479 10473 10467 10461 10456 10450 10445 10439 10434 10429
10693 10694 10695 10695 10696 10696 10696 10696 10696 10697 10697 10697 10697 10697 10697 10697 10697 10696 10696 10695 10694 10693 10692 10691 10690 10688 10687 10687 10686 10686 10684 10683 10681 10679 10677 10674 10672 10670 10668 10665 10662 10659 10656 10653 10649 10646 10643 10639 10635 10630 10626 10621 10617 10612 10606 10600 10594 10588 10581 10574 10568 10561 10555 10548 10542 10535 10528 10521 10513 10506 10500 10493 10487 10481 10475 10468 10463 10457 10452 10447 10442 10437 10431 10426 10421
10687 10688 10688 10689 10689 10690 10690 10689 10689 10689 10689 10689 10689 10689 10689 10689 10689 10689 10688 10688 10687 10686 10685 10684 10682 10681 10680 10680 10679 10678 10677 10675 10673 10671 10669 10667 10665 10662 10660 10657 10654 10650 10647 10644 10640 10637 10634 10630 10626 10621 10616 10611 10607 10601 10596 10590 10584 10577 10570 10563 10557 10550 10544 10538 10531 10524 10517 10510 10503 10496 10489 10483 10477 10471 10465 10459 10454 10449 10444 10439 10434 10429 10424 10419 10414
10680 10680 10681 10682 10682 10683 10683 10683 10683 10682 10682 10682 10682 10682 10682 10682 10682 10681 10681 10680 10679 10678 10677 10676 10675 10674 10673 10672 10672 10671 10670 10668 10666 10664 10662 10660 10657 10654 10651 10648 10645 10642 10638 10635 10631 10628 10625 10621 10617 10612 10607 10602 10597 10592 10586 10580 10573 10566 10559 10553 10546 10540 10534 10527 10520 10513 10506 10499 10492 10486 10479 10473 10467 10461 10456 10451 10446 10441 10437 10432 10427 10422 10417 10412 10407
10672 10673 10673 10674 10675 10675 10675 10675 10675 10675 10675 10675 10675 10675 10675 10675 10674 10674 10673 10673 10672 10671 10670 10669 10668 10667 10666 10665 10665 10664 10663 10661 10659 10657 10654 10652 10649 10646 10643 10640 10637 10633 10630 10626 10622 10619 10616 10612 10608 10603 10598 10592 10587 10582 10576 10570 10563 10556 10549 10543 10536 10530 10524 10517 10510 10503 10496 10489 10482 10476 10469 10464 10458 10453 10448 10443 10438 10434 10430 10425 10420 10415 10411 10406 10402
10665 10665 10666 10666 10667 10668 10668 10668 10668 10668 10668 10668 10668 10668 10667 10667 10667 10667 10666 10666 10665 10664 10663 10662 10660 10659 10659 10658 10658 10657 10655 10654 10652 10649 10647 10644 10641 10638 10635 10632 10629 10625 10621 10616 10613 10610 10607 10603 10599 10594 10589 10583 10578 10572 10566 10560 10553 10547 10540 10534 10527 10521 10514 10507 10500 10493 10486 10480 10473 10467 10461 10455 10450 10445 10441 10436 10431 10427 10423 10419 10414 10410 10405 10401 10397